FENGYUN 1C DEB, 30493

Orbit data source: Space-Track

FENGYUN 1C DEB, 30493 is space debris in SSO originally from a launch on Mon, 10 May 1999 UTC launched from the Taiyaun Space Center, China (TSC). Fengyun 1C debris stems from the Chinese weather satellite Fengyun-1C, which was intentionally destroyed by a Chinese anti-satellite missile in 2007. This event dramatically increased the amount of space debris, with thousands of trackable fragments posing hazards to satellites and human spaceflight. The Fengyun 1C debris cloud has become a focal point in discussions about space sustainability and the need for international regulations to prevent the creation of new debris.

Loading next visibility...
Identifier
30493, 1999-025AHF
Orbit
SSO
Country
Flag of CNCN / PRC
Related business
Manufacturer
Unknown
Mission
Spacecraft
Bus & Motor
Unknown
Mass
Unknown
Launch date (UTC)
1999-05-10 (27 years ago)
Launch vehicle
Unknown
Launch site
Taiyaun Space Center, China (TSC)
Object type
Payload
Rocket body
Debris
Shape & HBR
Unknown shape, 0.1 m
Radar Cross Section
Medium (>0.1 m² and <1 m²)

Expand to show TLE details & history
Last TLE update: 2 days ago

TLE from 2 days ago
0 FENGYUN 1C DEB
1 30493U 99025AHF 26207.97110388  .00002233  00000-0  15014-2 0  9991
2 30493  98.5790  27.1079 0180012 310.2232 204.3935 13.94088050982463
Epoch: 2026-07-26T23:18Z
TLE epoch observation values (Epoch: 2026-07-26T23:18:23.375Z)
Latitude
25.93489°
Longitude
-82.96511°
Altitude
1,037.431 km
Speed
7.275 km/s
True Right ascension
14h 05m 10s
True Declination
25° 48' 18"
Sunlit
Object was in daylight at epoch
Visualization orbit readout
Latitude
Unknown
Longitude
Unknown
Altitude
Unknown
Speed
Unknown
Apparent Right ascension
Unknown
Apparent Declination
Unknown
Sunlit
N/A
Visualization observer readout
Local Sidereal Time
07:49:27
Azimuth
Unknown
Elevation
Unknown
Doppler factor
Unknown
Orbital elements
Apogee altitude
1,042.748 km
Perigee altitude
780.303 km
Semi-major axis
7,289.662 km
Eccentricity
0.018
Inclination
98.579°
RAAN
27.1079°
Arg. of periapsis
310.2232°
True anomaly
203.55872°
Mean anomaly
204.3935°
Eccentric anomaly
203.97442°
Mean motion
3.48724 °/min
Orbital period
103.23 mins
BSTAR
0.0015014
Loading maneuver chart data...
Computing Atmospheric mass density...
Loading historical data...
Loading historical data...
Loading historical data...
Loading historical data...
Loading historical data...
Loading historical data...
Loading historical data...

Documentation

Showing up to 5 results
|